Location: Unspecified
(0.0000°N, 0.0000°E)
Time: 08:26:36
(UTC+00:00)

Vanguard 2 - Pass Details

Date: 20 October 2021
Orbit: 554 x 2936 km, 32.9° (Epoch: 06 December)

Event Time Altitude Azimuth Distance (km) Brightness Sun altitude
Rises 19:54:10 0° 220° (SW) 6,280 12.9 -31.7°
Reaches altitude 10° 19:58:49 10° 211° (SSW) 5,494 12.3 -32.9°
Maximum altitude 20:13:54 35° 151° (SSE) 4,049 10.9 -36.5°
Enters shadow 20:17:11 33° 133° (SE) 4,107 10.8 -37.4°
Drops below altitude 10° 20:28:19 10° 92° (E) 5,318 - -40.1°
Sets 20:32:38 0° 83° (E) 6,071 - -41.1°
